BULGARIASAT-1

Last updated on Sun Dec 14 2025 00:02:52 GMT+0000 (Coordinated Universal Time)

1 42801U 17038A 25347.20406166 .00000025 00000+0 00000+0 0 9995 2 42801 0.0209 302.5990 0002624 323.1311 251.8020 1.00273663 30979
UTC large
Height (km)
Speed (km/s)
/
Latitude / Longitude
Inclination (degrees)
Orbital Period (minutes)
Azimuth
Elevation
Range (km)
Doppler Factor

Next 0 passes for location: London (51.5072 / 0.1276)

Sorry there are no passes over London.